Albertville, AL

10:04 PM CDT on April 26, 2017 (GMT -0500)
Albertville

Weather History for K8A0 - January, 2014

Change the Weather History Date:

Tuesday, January 7, 2014

  Actual Average (KGAD) Record (KGAD)
Temperature  
Mean Temperature 15 °F -  
Max Temperature 24 °F 50 °F 71 °F (2008)
Min Temperature 6 °F 30 °F 6 °F (2014)
Degree Days  
Heating Degree Days 50    
Moisture  
Dew Point 5 °F    
Average Humidity 67    
Maximum Humidity 86    
Minimum Humidity 46    
Precipitation  
Precipitation 0.00 in - - ()
Sea Level Pressure  
Sea Level Pressure 30.47 in    
Wind  
Wind Speed 6 mph (NW)    
Max Wind Speed 13 mph    
Max Gust Speed 18 mph    
Visibility 10 miles    
Events      
Averages and records for this station are not official NWS values.
T = Trace of Precipitation, MM = Missing Value Source: NWS Daily Summary

Daily Weather History Graph

Daily Weather History Graph

Search for Another Location

Airport or City:

Trip Planner

Search our weather history database for the weather conditions in past years. The results will help you decide how hot, cold, wet, or windy it might be!

Date:

Astronomy

Jan. 07, 2014 Rise Set
Actual Time 6:51 AM CST 4:51 PM CST
Civil Twilight 6:24 AM CST 5:18 PM CST
Nautical Twilight 5:53 AM CST 5:49 PM CST
Astronomical Twilight 5:22 AM CST 6:20 PM CST
Moon 10:59 AM CST (1/7) No Moon Set
Length of Visible Light 10h 54m
Length of Day
9h 59m
Waxing Crescent, 46% of the Moon is Illuminated
Jan 7
Waxing Crescent
Jan 7
First Quarter
Jan 15
Full
Jan 23
Last Quarter
Jan 30
New

Hourly Weather History & Observations

Time (CST) Temp. Windchill Dew Point Humidity Pressure Visibility Wind Dir Wind Speed Gust Speed Precip Events Conditions
12:15 AM 8.6 °F -7.0 °F 3.2 °F 79% 30.48 in 10.0 mi NW 12.7 mph 17.3 mph N/A   Clear
12:35 AM 8.6 °F -6.3 °F 1.4 °F 73% 30.47 in 10.0 mi NW 11.5 mph 18.4 mph N/A   Clear
12:55 AM 8.6 °F -6.3 °F 3.2 °F 79% 30.45 in 10.0 mi NW 11.5 mph 16.1 mph N/A   Clear
1:15 AM 8.6 °F -4.7 °F 1.4 °F 73% 30.46 in 10.0 mi NNW 9.2 mph - N/A   Clear
1:35 AM 8.6 °F -5.5 °F 1.4 °F 73% 30.46 in 10.0 mi NNW 10.4 mph 17.3 mph N/A   Clear
1:55 AM 8.6 °F -4.7 °F 1.4 °F 73% 30.46 in 10.0 mi NNW 9.2 mph 16.1 mph N/A   Clear
2:15 AM 8.6 °F -2.6 °F 1.4 °F 73% 30.47 in 10.0 mi North 6.9 mph - N/A   Clear
2:35 AM 8.6 °F -5.5 °F 1.4 °F 73% 30.47 in 10.0 mi North 10.4 mph - N/A   Clear
2:55 AM 8.6 °F -4.7 °F 1.4 °F 73% 30.46 in 10.0 mi North 9.2 mph - N/A   Clear
3:15 AM 8.6 °F -1.3 °F 1.4 °F 73% 30.45 in 10.0 mi North 5.8 mph - N/A   Clear
3:35 AM 8.6 °F 2.0 °F 1.4 °F 73% 30.45 in 10.0 mi North 3.5 mph - N/A   Clear
3:55 AM 6.8 °F -3.5 °F 1.4 °F 79% 30.45 in 10.0 mi North 5.8 mph - N/A   Clear
4:15 AM 6.8 °F -2.0 °F 1.4 °F 79% 30.46 in 10.0 mi North 4.6 mph - N/A   Clear
4:35 AM 6.8 °F -0.1 °F 1.4 °F 79% 30.46 in 10.0 mi NNW 3.5 mph - N/A   Clear
4:55 AM 6.8 °F - 3.2 °F 85% 30.47 in 10.0 mi Calm Calm - N/A   Clear
5:15 AM 6.8 °F -2.0 °F 1.4 °F 79% 30.48 in 10.0 mi NNW 4.6 mph - N/A   Clear
5:35 AM 6.8 °F -3.5 °F -0.4 °F 72% 30.50 in 10.0 mi NW 5.8 mph - N/A   Clear
5:55 AM 6.8 °F -7.8 °F -0.4 °F 72% 30.50 in 10.0 mi NNW 10.4 mph - N/A   Clear
6:15 AM 6.8 °F -3.5 °F 1.4 °F 79% 30.51 in 10.0 mi NNW 5.8 mph - N/A   Clear
6:35 AM 6.8 °F -4.8 °F 1.4 °F 79% 30.51 in 10.0 mi NNW 6.9 mph - N/A   Clear
6:55 AM 6.8 °F -5.9 °F 1.4 °F 79% 30.52 in 10.0 mi NNW 8.1 mph - N/A   Clear
7:15 AM 6.8 °F -6.9 °F 1.4 °F 79% 30.51 in 10.0 mi North 9.2 mph - N/A   Clear
7:35 AM 8.6 °F -5.5 °F 1.4 °F 73% 30.50 in 10.0 mi North 10.4 mph 16.1 mph N/A   Clear
7:55 AM 8.6 °F -4.7 °F 1.4 °F 73% 30.49 in 10.0 mi North 9.2 mph - N/A   Clear
8:15 AM 8.6 °F -5.5 °F 1.4 °F 73% 30.49 in 10.0 mi North 10.4 mph - N/A   Clear
8:35 AM 10.4 °F -2.4 °F 3.2 °F 73% 30.49 in 10.0 mi North 9.2 mph - N/A   Clear
8:55 AM 10.4 °F -2.4 °F 3.2 °F 73% 30.51 in 10.0 mi NNE 9.2 mph - N/A   Clear
9:15 AM 10.4 °F -0.4 °F 1.4 °F 67% 30.52 in 10.0 mi NE 6.9 mph - N/A   Clear
9:35 AM 12.2 °F - 1.4 °F 62% 30.53 in 10.0 mi Calm Calm - N/A   Clear
9:55 AM 14.0 °F 6.5 °F 3.2 °F 62% 30.52 in 10.0 mi NNW 4.6 mph - N/A   Clear
10:15 AM 14.0 °F - 3.2 °F 62% 30.52 in 10.0 mi Calm Calm - N/A   Clear
10:35 AM 14.0 °F - 3.2 °F 62% 30.52 in 10.0 mi Calm Calm - N/A   Clear
10:55 AM 14.0 °F 6.5 °F 1.4 °F 57% 30.51 in 10.0 mi NNW 4.6 mph - N/A   Clear
11:15 AM 15.8 °F - 3.2 °F 58% 30.50 in 10.0 mi Calm Calm - N/A   Clear
11:35 AM 17.6 °F - 3.2 °F 53% 30.49 in 10.0 mi Calm Calm - N/A   Clear
11:55 AM 17.6 °F 10.7 °F 5.0 °F 58% 30.47 in 10.0 mi NNE 4.6 mph - N/A   Clear
12:15 PM 19.4 °F 12.8 °F 5.0 °F 54% 30.47 in 10.0 mi West 4.6 mph - N/A   Clear
12:35 PM 19.4 °F - 5.0 °F 54% 30.46 in 10.0 mi Calm Calm - N/A   Clear
12:55 PM 19.4 °F - 5.0 °F 54% 30.46 in 10.0 mi Calm Calm - N/A   Clear
1:15 PM 21.2 °F 14.9 °F 5.0 °F 50% 30.45 in 10.0 mi North 4.6 mph - N/A   Clear
1:35 PM 21.2 °F 13.6 °F 5.0 °F 50% 30.45 in 10.0 mi West 5.8 mph - N/A   Clear
1:55 PM 21.2 °F - 5.0 °F 50% 30.45 in 10.0 mi Calm Calm - N/A   Clear
2:15 PM 23.0 °F 17.0 °F 6.8 °F 50% 30.45 in 10.0 mi West 4.6 mph - N/A   Clear
2:35 PM 23.0 °F 17.0 °F 5.0 °F 46% 30.45 in 10.0 mi West 4.6 mph - N/A   Clear
2:55 PM 23.0 °F 18.4 °F 6.8 °F 50% 30.45 in 10.0 mi NW 3.5 mph - N/A   Clear
3:15 PM 23.0 °F 18.4 °F 6.8 °F 50% 30.45 in 10.0 mi SW 3.5 mph - N/A   Clear
3:35 PM 24.8 °F - 6.8 °F 46% 30.46 in 10.0 mi Calm Calm - N/A   Clear
3:55 PM 23.0 °F 15.8 °F 6.8 °F 50% 30.46 in 10.0 mi WNW 5.8 mph - N/A   Clear
4:15 PM 23.0 °F 17.0 °F 5.0 °F 46% 30.46 in 10.0 mi WNW 4.6 mph - N/A   Clear
4:35 PM 23.0 °F 18.4 °F 5.0 °F 46% 30.46 in 10.0 mi WNW 3.5 mph - N/A   Clear
4:55 PM 23.0 °F 18.4 °F 8.6 °F 54% 30.45 in 10.0 mi SSW 3.5 mph - N/A   Clear
5:15 PM 21.2 °F - 8.6 °F 58% 30.45 in 10.0 mi Calm Calm - N/A   Clear
5:35 PM 21.2 °F - 8.6 °F 58% 30.46 in 10.0 mi Calm Calm - N/A   Clear
5:55 PM 21.2 °F - 8.6 °F 58% 30.46 in 10.0 mi Calm Calm - N/A   Clear
6:15 PM 19.4 °F - 8.6 °F 63% 30.46 in 10.0 mi Calm Calm - N/A   Clear
6:35 PM 19.4 °F 14.3 °F 10.4 °F 68% 30.47 in 10.0 mi South 3.5 mph - N/A   Clear
6:55 PM 19.4 °F 12.8 °F 10.4 °F 68% 30.46 in 10.0 mi South 4.6 mph - N/A   Clear
7:15 PM 19.4 °F 12.8 °F 10.4 °F 68% 30.46 in 10.0 mi South 4.6 mph - N/A   Clear
7:35 PM 19.4 °F 12.8 °F 10.4 °F 68% 30.46 in 10.0 mi South 4.6 mph - N/A   Clear
7:55 PM 19.4 °F 14.3 °F 10.4 °F 68% 30.46 in 10.0 mi South 3.5 mph - N/A   Clear
8:15 PM 19.4 °F 14.3 °F 8.6 °F 63% 30.46 in 10.0 mi SSW 3.5 mph - N/A   Clear
8:35 PM 19.4 °F - 8.6 °F 63% 30.47 in 10.0 mi Calm Calm - N/A   Clear
8:55 PM 19.4 °F - 8.6 °F 63% 30.47 in 10.0 mi Calm Calm - N/A   Clear
9:15 PM 19.4 °F - 10.4 °F 68% 30.47 in 10.0 mi Calm Calm - N/A   Clear
9:35 PM 19.4 °F - 10.4 °F 68% 30.47 in 10.0 mi Calm Calm - N/A   Clear
9:55 PM 17.6 °F - 10.4 °F 73% 30.47 in 10.0 mi Calm Calm - N/A   Clear
10:15 PM 17.6 °F - 10.4 °F 73% 30.47 in 10.0 mi Calm Calm - N/A   Clear
10:35 PM 17.6 °F - 12.2 °F 79% 30.46 in 10.0 mi Calm Calm - N/A   Clear
10:55 PM 15.8 °F - 12.2 °F 86% 30.46 in 10.0 mi Calm Calm - N/A   Clear
11:15 PM 15.8 °F - 12.2 °F 86% 30.46 in 10.0 mi Calm Calm - N/A   Clear
11:35 PM 15.8 °F 8.6 °F 12.2 °F 86% 30.45 in 10.0 mi SSE 4.6 mph - N/A   Clear
11:55 PM 15.8 °F - 12.2 °F 86% 30.45 in 10.0 mi Calm Calm - N/A   Clear